Marrakech, Morocco

9:55 AM WEST on April 26, 2017 (GMT +0100)
Marrakech

Weather History for GMMX - May, 2013

Change the Weather History Date:

Wednesday, May 22, 2013

  Actual Average Record
Temperature  
Mean Temperature 66 °F -  
Max Temperature 79 °F 88 °F 104 °F (2016)
Min Temperature 52 °F 61 °F 52 °F (2013)
Growing Degree Days 16 (Base 50)    
Moisture  
Dew Point 42 °F    
Average Humidity 46    
Maximum Humidity 77    
Minimum Humidity 9    
Precipitation  
Precipitation 0.00 in 0.01 in - ()
Sea Level Pressure  
Sea Level Pressure 30.07 in    
Wind  
Wind Speed 5 mph ()    
Max Wind Speed 14 mph    
Max Gust Speed -    
Visibility 6.2 miles    
Events      
Averages and records for this station are not official NWS values.
T = Trace of Precipitation, MM = Missing Value Source: Averaged Metar Reports

Daily Weather History Graph

Daily Weather History Graph

Search for Another Location

Airport or City:

Trip Planner

Search our weather history database for the weather conditions in past years. The results will help you decide how hot, cold, wet, or windy it might be!

Date:

Astronomy

May. 22, 2013 Rise Set
Actual Time 6:31 AM WEST 8:26 PM WEST
Civil Twilight 6:04 AM WEST 8:53 PM WEST
Nautical Twilight 5:31 AM WEST 9:26 PM WEST
Astronomical Twilight 4:56 AM WEST 10:01 PM WEST
Moon 5:41 PM WEST (5/22) 4:15 AM WEST (5/22)
Length of Visible Light 14h 49m
Length of Day
13h 54m
Waxing Gibbous, 90% of the Moon is Illuminated
May 22
Waxing Gibbous
May 25
Full
May 31
Last Quarter
Jun 8
New
Jun 16
First Quarter

Hourly Weather History & Observations

Time (WEST) Temp. Dew Point Humidity Pressure Visibility Wind Dir Wind Speed Gust Speed Precip Events Conditions
12:00 AM 60.8 °F 46.4 °F 59% 30.09 in - NE 13.8 mph - N/A   Clear
12:30 AM 60.8 °F 46.4 °F 59% 30.09 in - NE 11.5 mph - N/A   Clear
1:00 AM 59 °F 47 °F 56% 30.09 in 6 mi NE 9.2 mph - -  
1:00 AM 59.0 °F 46.4 °F 63% 30.09 in - NE 9.2 mph - N/A   Clear
1:30 AM 59.0 °F 48.2 °F 67% 30.09 in 6.2 mi NE 9.2 mph - N/A   Unknown
2:00 AM 59.0 °F 48.2 °F 67% 30.09 in 6.2 mi NE 9.2 mph - N/A   Unknown
2:30 AM 57.2 °F 48.2 °F 72% 30.09 in 6.2 mi NE 5.8 mph - N/A   Unknown
3:00 AM 57.2 °F 48.2 °F 72% 30.06 in 6.2 mi NE 1.2 mph - N/A   Unknown
3:30 AM 57.2 °F 48.2 °F 72% 30.06 in 6.2 mi Calm Calm - N/A   Unknown
4:00 AM 55 °F 47 °F 67% 30.08 in 6 mi Calm Calm - -  
4:00 AM 55.4 °F 46.4 °F 72% 30.06 in 6.2 mi Calm Calm - N/A   Unknown
4:30 AM 55.4 °F 46.4 °F 72% 30.06 in 6.2 mi Calm Calm - N/A   Unknown
5:00 AM 53.6 °F 46.4 °F 77% 30.06 in 6.2 mi Calm Calm - N/A   Unknown
5:30 AM 53.6 °F 46.4 °F 77% 30.06 in 6.2 mi Calm Calm - N/A   Unknown
6:00 AM 53.6 °F 46.4 °F 77% 30.06 in - Calm Calm - N/A   Clear
6:30 AM 53.6 °F 46.4 °F 77% 30.06 in - Calm Calm - N/A   Clear
7:00 AM 53 °F 46 °F 69% 30.09 in 6 mi Calm Calm - -  
7:00 AM 53.6 °F 46.4 °F 77% 30.06 in - Calm Calm - N/A   Clear
7:30 AM 55.4 °F 46.4 °F 72% 30.09 in - Calm Calm - N/A   Clear
8:00 AM 57.2 °F 46.4 °F 67% 30.09 in - Calm Calm - N/A   Clear
8:30 AM 59.0 °F 46.4 °F 63% 30.09 in - Calm Calm - N/A   Clear
9:00 AM 59.0 °F 46.4 °F 63% 30.09 in - Calm Calm - N/A   Clear
9:30 AM 60.8 °F 46.4 °F 59% 30.12 in - Calm Calm - N/A   Clear
10:00 AM 63 °F 46 °F 43% 30.09 in 6 mi NNE 1.2 mph - -  
10:00 AM 62.6 °F 46.4 °F 55% 30.12 in - Calm Calm - N/A   Clear
10:30 AM 64.4 °F 46.4 °F 52% 30.12 in - NNE 4.6 mph - N/A   Clear
11:00 AM 66.2 °F 44.6 °F 46% 30.12 in - NE 5.8 mph - N/A   Clear
11:30 AM 68.0 °F 44.6 °F 43% 30.12 in - NE 6.9 mph - N/A   Clear
12:00 PM 69.8 °F 41.0 °F 35% 30.12 in - NNE 6.9 mph - N/A   Clear
12:30 PM 69.8 °F 41.0 °F 35% 30.09 in - North 6.9 mph - N/A   Clear
1:00 PM 72 °F 40 °F 20% 30.04 in 6 mi North 4.6 mph - -  
1:00 PM 71.6 °F 39.2 °F 31% 30.09 in - NNE 3.5 mph - N/A   Clear
1:30 PM 73.4 °F 41.0 °F 31% 30.09 in - NNE 4.6 mph - N/A   Clear
2:00 PM 75.2 °F 41.0 °F 29% 30.09 in 6.2 mi North 4.6 mph - N/A   Partly Cloudy
2:30 PM 75.2 °F 41.0 °F 29% 30.06 in 6.2 mi NE 8.1 mph - N/A   Partly Cloudy
3:00 PM 75.2 °F 39.2 °F 27% 30.06 in 6.2 mi Variable 4.6 mph - N/A   Partly Cloudy
3:30 PM 77.0 °F 35.6 °F 22% 30.06 in 6.2 mi NNE 4.6 mph - N/A   Partly Cloudy
4:00 PM 77 °F 35 °F 13% 29.99 in 6 mi East 5.8 mph - -   Scattered Clouds
4:00 PM 77.0 °F 37.4 °F 24% 30.06 in 6.2 mi Variable 4.6 mph - N/A   Partly Cloudy
4:30 PM 77.0 °F 35.6 °F 22% 30.04 in 6.2 mi Variable 5.8 mph - N/A   Partly Cloudy
5:00 PM 77.0 °F 32.0 °F 19% 30.04 in 6.2 mi ENE 3.5 mph - N/A   Partly Cloudy
5:30 PM 78.8 °F 32.0 °F 18% 30.04 in 6.2 mi Variable 3.5 mph - N/A   Partly Cloudy
6:00 PM 78.8 °F 32.0 °F 18% 30.04 in 6.2 mi Calm Calm - N/A   Partly Cloudy
6:30 PM 78.8 °F 30.2 °F 17% 30.04 in 6.2 mi North 8.1 mph - N/A   Partly Cloudy
7:00 PM 78 °F 30 °F 9% 29.96 in 6 mi NE 6.9 mph - -   Scattered Clouds
7:00 PM 78.8 °F 30.2 °F 17% 30.04 in 6.2 mi NE 6.9 mph - N/A   Partly Cloudy
7:30 PM 77.0 °F 28.4 °F 17% 30.04 in 6.2 mi Calm Calm - N/A   Partly Cloudy
8:00 PM 77.0 °F 28.4 °F 17% 30.04 in 6.2 mi Calm Calm - N/A   Partly Cloudy
8:30 PM 75.2 °F 28.4 °F 18% 30.04 in 6.2 mi Calm Calm - N/A   Partly Cloudy
9:00 PM 75.2 °F 28.4 °F 18% 30.04 in 6.2 mi Calm Calm - N/A   Partly Cloudy
9:30 PM 71.6 °F 48.2 °F 43% 30.06 in 6.2 mi North 12.7 mph - N/A   Partly Cloudy
10:00 PM 69 °F 47 °F 35% 30.04 in 6 mi NNE 13.8 mph - -   Scattered Clouds
10:00 PM 69.8 °F 48.2 °F 46% 30.09 in 6.2 mi NNE 12.7 mph - N/A   Partly Cloudy
10:30 PM 68.0 °F 48.2 °F 49% 30.09 in 6.2 mi North 11.5 mph - N/A   Unknown
11:00 PM 66.2 °F 50.0 °F 56% 30.12 in 6.2 mi NNE 11.5 mph - N/A   Partly Cloudy
11:30 PM 66.2 °F 50.0 °F 56% 30.12 in 6.2 mi NE 9.2 mph - N/A   Partly Cloudy